2020-003H (45023 NORAD) Tracking and Keplerian Element Data

This shows tracking and keplerian element data for the satellite.

Feedback or suggestion? Click here.




ElementValue
Catalog45023
Name2020-003H
Epoch Orbit456
Epoch Day45.15209432
Epoch Year2020
RAAN114.3486
Inclination97.4496
Eccentricity0.004476
Argument of Perigee202.8081
Mean Anonmoly157.1175
Mean Motion15.34973435
Decay Rate2.496E-05
L11 45023U 20003H 20045.15209432 .00002496 00000-0 73736-4 0 9997
L22 45023 97.4496 114.3486 0044760 202.8081 157.1175 15.34973435 4560

Live tracking and technical data element details for 2020-003H (NORAD 45023). 2020-003H can be tracked NOW for your location showing map with azimuth and elevation plus other details from your city location.

Track the satellite on the map from your city or location and see movement details for azimuth, elevation, latitude, longitude, range, height, and movement on the map or in text.







IsCatalogInMostPopularTable: catalog: 45023, numindb: 8
Update: records affected: 1



GetName: 45023 2020-003H

Hit Count: updated at: Mon, 17 Feb 2020 23:55:25 GMT